Flag for Brazil Weather past 2 weeks in Tabatinga, Amazonas, Brazil

Now
72 °F

Partly sunny.


Feels Like: 65 °F
Forecast: 74 / 87 °F
Wind: No wind

Location: Leticia / Vasquez Cobo

Current Time: Oct 2, 2014 at 6:29:06 AM

Latest Report: Oct 2, 2014 at 6:00 AM


Visibility: N/A

Pressure: 29.90 "Hg

Humidity: 100%

Dew point: 72 °F

Location of TabatingaLocation

Historic Weather in Tabatinga — Graph

°F

Tabatinga temperature yesterday

Maximum temperature yesterday: 93 °F (at 2:00 PM)
Minimum temperature yesterday: 72 °F (at 10:00 PM)
Average temperature yesterday: 82 °F

Past Weeks' High & Low Weather Summary

 TemperatureHumidityPressure
High93 °F (Sep 18, 3:00 PM)100% (Sep 17, 6:00 AM)29.99 "Hg (Sep 17, 6:00 AM)
Low72 °F (Sep 17, 6:00 AM)62% (Sep 17, 11:00 AM)29.73 "Hg (Sep 19, 4:00 PM)
Average80 °F87%29.86 "Hg
* Reported Sep 17 5:00 AM — Oct 2 5:00 AM, Tabatinga, Weather by CustomWeather, © 2014

Note: Actual official high and low records may vary slightly from our data, if they occured in-between our weather recording intervals... More about our weather records

Advertising

Tabatinga weather history for previous 24 hours

 ConditionsComfort  
Time TempWeatherWind HumidityBarometerVisibility
5:00 AM
Oct 2
72 °FPassing clouds.No wind100%29.88 "HgN/A
4:00 AM73 °FOvercast.No wind94%29.87 "HgN/A
3:00 AM73 °FOvercast.No wind94%29.86 "HgN/A
2:00 AM73 °FOvercast.No wind94%29.87 "HgN/A
12:00 AM73 °FOvercast.No wind94%29.89 "HgN/A
11:00 PM
Oct 1
72 °FOvercast.No wind100%29.90 "HgN/A
10:00 PM72 °FLight rain. Overcast.No wind100%29.91 "Hg4 mi
9:00 PM75 °FLight rain. Overcast.5 mph94%29.92 "Hg3 mi
8:00 PM77 °FThunderstorms. Passing clouds.12 mph83%29.88 "Hg4 mi
7:00 PM81 °FThunderstorms. Passing clouds.No wind94%29.81 "HgN/A
6:00 PM84 °FThunderstorms. Passing clouds.3 mph84%29.78 "Hg6 mi
5:00 PM91 °FThunderstorms. Scattered clouds.2 mph67%29.76 "HgN/A
4:00 PM93 °FScattered showers. Scattered clouds.2 mph63%29.75 "Hg5 mi
3:00 PM93 °FScattered clouds.3 mph67%29.77 "HgN/A
2:00 PM93 °FPartly sunny.5 mph67%29.81 "HgN/A
1:00 PM91 °FPartly sunny.3 mph67%29.85 "HgN/A
12:00 PM91 °FPartly sunny.3 mph71%29.89 "HgN/A
11:00 AM90 °FScattered clouds.3 mph75%29.91 "HgN/A
10:00 AM88 °FPassing clouds.2 mph75%29.94 "HgN/A
9:00 AM84 °FPassing clouds.3 mph84%29.94 "HgN/A
8:00 AM81 °FPassing clouds.3 mph89%29.92 "HgN/A
7:00 AM77 °FPassing clouds.3 mph94%29.90 "HgN/A
6:00 AM73 °FFog.No wind94%29.89 "Hg2 mi
Weather by CustomWeather, © 2014

See weather overviewHow to use our weather pages